NOAA 16 DEB, 41202

Orbit data source: Space-Track

NOAA 16 DEB, 41202 is space debris in SSO originally from a launch on Thu, 21 Sep 2000 UTC launched from the Air Force Western Test Range (AFWTR). Debris objects in space refer to the collection of defunct objects orbiting the Earth. Examples of debris include non-operational satellites, rocket bodies, and fragments generated from explosions, collisions, or faulty payload assembly.

Loading next visibility...
Identifier
41202, 2000-055DF
Orbit
SSO
Country
Flag of USUS
Related business
Manufacturer
Unknown
Mission
Spacecraft
Bus & Motor
Unknown
Mass
Unknown
Launch date (UTC)
2000-09-21 (25 years ago)
Launch vehicle
Unknown
Launch site
Air Force Western Test Range (AFWTR)
Object type
Payload
Rocket body
Debris
Shape & HBR
Unknown shape, 0.1 m
Radar Cross Section
Small (<0.1 m²)

Expand to show TLE details & history
Last TLE update: 20 hours ago

TLE from 20 hours ago
0 NOAA 16 DEB
1 41202U 00055DF  25290.89501189  .00004436  00000-0  26879-2 0  9999
2 41202  98.8668 271.8974 0077520  23.6265 336.8432 14.05393625503116
Epoch: 2025-10-17T21:28Z
TLE epoch observation values (Epoch: 2025-10-17T21:28:49.027Z)
Latitude
-0.00007°
Longitude
-76.94069°
Altitude
826.428 km
Speed
7.466 km/s
True Right ascension
18h 07m 35s
True Declination
0° 00' 00"
Sunlit
Object was in daylight at epoch
Visualization orbit readout
Latitude
Unknown
Longitude
Unknown
Altitude
Unknown
Speed
Unknown
Apparent Right ascension
Unknown
Apparent Declination
Unknown
Sunlit
N/A
Visualization observer readout
Local Sidereal Time
12:28:36
Azimuth
Unknown
Elevation
Unknown
Doppler factor
Unknown
Orbital elements
Apogee altitude
928.569 km
Perigee altitude
816.157 km
Semi-major axis
7,250.5 km
Eccentricity
0.00775
Inclination
98.8668°
RAAN
271.8974°
Arg. of periapsis
23.6265°
True anomaly
336.49073°
Mean anomaly
336.8432°
Eccentric anomaly
336.66728°
Mean motion
3.51553 °/min
Orbital period
102.4 mins
BSTAR
0.0026879
Loading maneuver chart data...
Computing Atmospheric mass density...

Documentation

Showing up to 5 results
|